Location: Buena Vista
(37.7110°N, 119.7938°W)
Time: 12:56:20
(UTC+00:00)

DUCHIFAT 1 - Visible Passes

Search period start: 03 October 2024 00:00
Search period end: 13 October 2024 00:00
Orbit: 518 x 540 km, 98.1° (Epoch: 02 October)

Date Brightness Start Highest point End Pass type
(mag) Time Alt. Az. Time Alt. Az. Time Alt. Az.
03 Oct ? 12:11:43 10° ENE 12:12:59 11° E 12:14:15 10° ESE visible
05 Oct ? 13:22:03 10° N 13:25:51 84° WNW 13:29:39 10° SSW visible
06 Oct ? 13:11:07 10° NNE 13:14:54 68° ESE 13:18:42 10° S visible
07 Oct ? 13:00:11 10° NNE 13:03:52 47° E 13:07:32 10° S visible
08 Oct ? 12:49:14 10° NNE 12:52:43 33° E 12:56:11 10° SSE visible
09 Oct ? 12:38:19 10° NE 12:41:28 24° E 12:44:36 10° SSE visible
10 Oct ? 12:27:30 10° NE 12:30:06 17° E 12:32:42 10° SE visible
11 Oct ? 12:16:57 10° ENE 12:18:38 13° E 12:20:20 10° ESE visible
